TimeEET,TemperatureF,Dew PointF,Humidity,Sea Level PressureIn,VisibilityMPH,Wind Direction,Wind SpeedMPH,Gust SpeedMPH,PrecipitationIn,Events,Conditions,WindDirDegrees,DateUTC
12:20 AM,55.4,50.0,82,30.12,3.1,North,2.3,-,N/A,,Mist,360,2012-11-15 22:20:00
12:50 AM,55.4,51.8,88,30.12,3.1,North,3.5,-,N/A,,Mist,350,2012-11-15 22:50:00
1:20 AM,55.4,50.0,82,30.12,3.1,Calm,Calm,-,N/A,,Mist,0,2012-11-15 23:20:00
1:50 AM,53.6,50.0,88,30.12,3.1,NNE,2.3,-,N/A,,Mist,30,2012-11-15 23:50:00
2:20 AM,53.6,50.0,88,30.12,3.1,North,2.3,-,N/A,,Mist,350,2012-11-16 00:20:00
2:50 AM,53.6,48.2,82,30.12,3.1,NNW,2.3,-,N/A,,Mist,330,2012-11-16 00:50:00
3:20 AM,53.6,48.2,82,30.12,3.1,NNW,3.5,-,N/A,,Mist,340,2012-11-16 01:20:00
3:50 AM,53.6,48.2,82,30.12,3.1,NNW,3.5,-,N/A,,Mist,340,2012-11-16 01:50:00
4:20 AM,51.8,48.2,88,30.12,3.1,North,2.3,-,N/A,,Mist,360,2012-11-16 02:20:00
4:50 AM,53.6,50.0,88,30.12,3.1,NNW,3.5,-,N/A,,Mist,340,2012-11-16 02:50:00
5:20 AM,53.6,48.2,82,30.12,3.1,North,3.5,-,N/A,,Mist,350,2012-11-16 03:20:00
5:50 AM,51.8,46.4,82,30.12,3.1,NNE,2.3,-,N/A,,Mist,30,2012-11-16 03:50:00
6:20 AM,51.8,48.2,88,30.15,3.1,NNW,2.3,-,N/A,,Mist,330,2012-11-16 04:20:00
6:50 AM,53.6,50.0,88,30.15,3.1,NNW,3.5,-,N/A,,Mist,340,2012-11-16 04:50:00
7:20 AM,57.2,50.0,77,30.15,3.1,North,4.6,-,N/A,,Mist,10,2012-11-16 05:20:00
7:50 AM,60.8,51.8,72,30.15,3.1,NNE,4.6,-,N/A,,Mist,20,2012-11-16 05:50:00
8:20 AM,62.6,51.8,68,30.15,-9999.0,NNE,5.8,-,N/A,,Clear,20,2012-11-16 06:20:00
8:50 AM,64.4,50.0,59,30.15,-9999.0,NE,5.8,-,N/A,,Clear,40,2012-11-16 06:50:00
9:20 AM,68.0,48.2,49,30.15,-9999.0,NNE,6.9,-,N/A,,Clear,30,2012-11-16 07:20:00
9:50 AM,68.0,48.2,49,30.15,-9999.0,NNE,8.1,-,N/A,,Clear,30,2012-11-16 07:50:00
10:20 AM,69.8,50.0,49,30.15,-9999.0,NE,5.8,-,N/A,,Clear,50,2012-11-16 08:20:00
10:50 AM,71.6,50.0,46,30.15,-9999.0,NE,5.8,-,N/A,,Clear,50,2012-11-16 08:50:00
11:20 AM,73.4,50.0,44,30.15,-9999.0,NE,4.6,-,N/A,,Clear,40,2012-11-16 09:20:00
11:50 AM,75.2,46.4,36,30.15,-9999.0,NE,4.6,-,N/A,,Clear,40,2012-11-16 09:50:00
12:20 PM,75.2,46.4,36,30.12,-9999.0,NE,3.5,-,N/A,,Clear,50,2012-11-16 10:20:00
12:50 PM,75.2,44.6,34,30.12,-9999.0,NNE,4.6,-,N/A,,Clear,20,2012-11-16 10:50:00
1:20 PM,77.0,44.6,32,30.12,-9999.0,ENE,3.5,-,N/A,,Clear,60,2012-11-16 11:20:00
1:50 PM,77.0,44.6,32,30.09,-9999.0,NE,4.6,-,N/A,,Clear,40,2012-11-16 11:50:00
2:20 PM,77.0,44.6,32,30.09,-9999.0,NE,4.6,-,N/A,,Clear,40,2012-11-16 12:20:00
2:50 PM,75.2,44.6,34,30.09,-9999.0,ENE,5.8,-,N/A,,Clear,60,2012-11-16 12:50:00
3:20 PM,73.4,50.0,44,30.09,-9999.0,SE,4.6,-,N/A,,Clear,140,2012-11-16 13:20:00
3:50 PM,71.6,53.6,53,30.09,-9999.0,SSE,3.5,-,N/A,,Clear,150,2012-11-16 13:50:00
4:20 PM,68.0,53.6,60,30.09,-9999.0,SE,2.3,-,N/A,,Clear,140,2012-11-16 14:20:00
4:50 PM,66.2,51.8,60,30.12,-9999.0,NE,2.3,-,N/A,,Clear,50,2012-11-16 14:50:00
5:20 PM,66.2,53.6,64,30.12,-9999.0,North,2.3,-,N/A,,Clear,360,2012-11-16 15:20:00
5:50 PM,64.4,55.4,73,30.12,-9999.0,NW,4.6,-,N/A,,Clear,320,2012-11-16 15:50:00
6:20 PM,64.4,53.6,68,30.12,-9999.0,NNW,4.6,-,N/A,,Clear,330,2012-11-16 16:20:00
6:50 PM,62.6,53.6,72,30.12,-9999.0,North,4.6,-,N/A,,Clear,10,2012-11-16 16:50:00
7:20 PM,62.6,53.6,72,30.12,-9999.0,North,3.5,-,N/A,,Clear,10,2012-11-16 17:20:00
7:50 PM,60.8,53.6,77,30.12,-9999.0,Variable,2.3,-,N/A,,Clear,0,2012-11-16 17:50:00
8:20 PM,59.0,53.6,82,30.12,3.1,NNE,3.5,-,N/A,,Mist,30,2012-11-16 18:20:00
8:50 PM,59.0,51.8,77,30.12,3.1,NNE,4.6,-,N/A,,Mist,30,2012-11-16 18:50:00
9:20 PM,59.0,51.8,77,30.12,3.1,NNE,5.8,-,N/A,,Mist,30,2012-11-16 19:20:00
9:50 PM,60.8,51.8,72,30.12,3.1,Variable,2.3,-,N/A,,Mist,0,2012-11-16 19:50:00
10:20 PM,60.8,51.8,72,30.12,3.1,North,5.8,-,N/A,,Mist,10,2012-11-16 20:20:00
10:50 PM,60.8,50.0,68,30.12,3.1,NNE,4.6,-,N/A,,Haze,30,2012-11-16 20:50:00
11:20 PM,60.8,50.0,68,30.12,3.1,North,3.5,-,N/A,,Haze,350,2012-11-16 21:20:00
11:50 PM,57.2,50.0,77,30.12,3.1,NNE,4.6,-,N/A,,Mist,20,2012-11-16 21:50:00